Regional Weather Roundup
Issued by NWS

Home | Current Version | Previous Version | Graphics & Text | Print | Product List | Glossary On
Versions: 1 2 3 4 5 6 7 8 9 10 11 12 13 14 15 16 17 18 19 20 21 22 23 24 25 26 27 28 29 30 31 32 33 34 35 36 37 38 39 40 41 42 43 44 45 46 47 48 49 50
833
ASUS44 KMEG 192200
RWRTN
TENNESSEE HOURLY STATE WEATHER ROUNDUP
NATIONAL WEATHER SERVICE MEMPHIS TN
400 PM CST SUN FEB 19 2017

TNZ002-004-019-021-049-052-054-088>092-192300-
WEST TENNESSEE

CITY           SKY/WX    TMP DP  RH WIND       PRES   REMARKS
MEMPHIS INTL   MOSUNNY   76  53  44 VRB3      30.04F
NWS MEMPHIS      N/A     78 N/A N/A MISG        N/A
JACKSON        SUNNY     73  53  49 CALM      30.07S
UNION CITY     SUNNY     70  48  46 CALM      30.06S
PARIS          SUNNY     70  50  49 VRB3      30.09S
$$

TNZ008-025-027-028-033-062-065-066-192300-
NORTH MIDDLE TENNESSEE

CITY           SKY/WX    TMP DP  RH WIND       PRES   REMARKS
NASHVILLE      MOSUNNY   70  49  47 VRB5      30.11S
CLARKSVILLE    SUNNY     69  51  52 SE3       30.09S
SMYRNA         SUNNY     68  52  56 N5        30.12S
CROSSVILLE     SUNNY     65  43  44 CALM      30.12S
$$

TNZ061-075-076-078-094-096-097-192300-
SOUTH MIDDLE TENNESSEE

CITY           SKY/WX    TMP DP  RH WIND       PRES   REMARKS
TULLAHOMA      SUNNY     68  46  45 NW7       30.12R
WINCHESTER     SUNNY     68  50  52 CALM      30.11S
MCMINNVILLE    SUNNY     66  52  59 CALM      30.11S
COLUMBIA       SUNNY     70  54  56 CALM      30.09R
SHELBYVILLE    SUNNY     70  52  52 N5        30.12S
$$

TNZ017-018-042-046-047-192300-
NORTHEAST TENNESSEE

CITY           SKY/WX    TMP DP  RH WIND       PRES   REMARKS
TRI CITIES     MOSUNNY   60  44  55 S3        30.12R
$$

TNZ012-013-036-069-073-074-192300-
CENTRAL EAST TENNESSEE

CITY           SKY/WX    TMP DP  RH WIND       PRES   REMARKS
KNOXVILLE      SUNNY     64  44  48 CALM      30.10S
OAK RIDGE      SUNNY     66  45  46 CALM      30.12S
GATLINBURG     SUNNY     63  43  48 CALM      30.11R
$$

TNZ083-085-099-192300-
SOUTHEAST TENNESSEE

CITY           SKY/WX    TMP DP  RH WIND       PRES   REMARKS
CHATTANOOGA    SUNNY     68  46  45 N5        30.10F
$$

SKY/WX REPORTED AS FAIR MEANS FEW OR NO CLOUDS BELOW
12 THOUSAND FEET.





USA.gov is the U.S. government's official web portal to all federal, state and local government web resources and services.